This is the latest recevied weather packets stored in our database for station/object M0UPS-13. If no packets are shown the sender has not sent any weather packets the latest 10 day(s).
| Time | Temp. | Humidity | Pressure | Rain* | Wind** | Luminosity | Snow |
|---|---|---|---|---|---|---|---|
| 1777473303 | 16.67° C | 38% | 1023.7 hPa | 0 mm | - | 565 W/m² | - |
| 1777473002 | 16.67° C | 37% | 1023.4 hPa | 0 mm | - | 590 W/m² | - |
| 1777472702 | 16.67° C | 37% | 1023.7 hPa | 0 mm | - | 580 W/m² | - |
| 1777472402 | 16.67° C | 36% | 1023.8 hPa | 0 mm | - | 586 W/m² | - |
| 1777472102 | 17.22° C | 36% | 1023.6 hPa | 0 mm | - | 588 W/m² | - |
| 1777471803 | 16.67° C | 38% | 1023.5 hPa | 0 mm | - | 600 W/m² | - |
| 1777471502 | 17.22° C | 36% | 1023.7 hPa | 0 mm | - | 607 W/m² | - |
| 1777471202 | 16.67° C | 37% | 1023.7 hPa | 0 mm | - | 634 W/m² | - |
| 1777470902 | 16.67° C | 36% | 1023.6 hPa | 0 mm | - | 603 W/m² | - |
| 1777470603 | 16.67° C | 37% | 1023.5 hPa | 0 mm | - | 603 W/m² | - |
| 1777470303 | 16.67° C | 38% | 1023.7 hPa | 0 mm | - | 632 W/m² | - |
| 1777470002 | 16.67° C | 38% | 1023.6 hPa | 0 mm | - | 640 W/m² | - |
| 1777469702 | 16.67° C | 38% | 1023.4 hPa | 0 mm | - | 651 W/m² | - |
| 1777469402 | 16.67° C | 37% | 1023.8 hPa | 0 mm | - | 642 W/m² | - |
| 1777469103 | 16.11° C | 38% | 1023.7 hPa | 0 mm | - | 655 W/m² | - |
| 1777468803 | 16.11° C | 38% | 1023.6 hPa | 0 mm | - | 583 W/m² | - |
| 1777468502 | 16.11° C | 38% | 1023.8 hPa | 0 mm | - | 466 W/m² | - |
| 1777468202 | 16.67° C | 38% | 1023.8 hPa | 0 mm | - | 487 W/m² | - |
| 1777467902 | 16.67° C | 36% | 1023.9 hPa | 0 mm | - | 475 W/m² | - |
| 1777467603 | 17.22° C | 36% | 1023.5 hPa | 0 mm | - | 566 W/m² | - |
| 1777467303 | 17.22° C | 35% | 1023.6 hPa | 0 mm | - | 537 W/m² | - |
| 1777467002 | 17.22° C | 35% | 1023.8 hPa | 0 mm | - | 568 W/m² | - |
| 1777466702 | 16.67° C | 36% | 1023.7 hPa | 0 mm | - | 571 W/m² | - |
| 1777466403 | 16.67° C | 36% | 1023.6 hPa | 0 mm | - | 633 W/m² | - |
| 1777466102 | 16.67° C | 35% | 1023.8 hPa | 0 mm | - | 474 W/m² | - |
* Rain latest hour (hover to see other rain measurements)
** Current wind speed in m/s (hover to see current wind gust speed)